Regional Weather Roundup
Issued by NWS Cleveland, OH

Home | Current Version | Previous Version | Graphics & Text | Print | Product List | Glossary Off
Versions: 1 2 3 4 5 6 7 8 9 10 11 12 13 14 15 16 17 18 19 20 21 22 23 24 25 26 27 28 29 30 31 32 33 34 35 36 37 38 39 40 41 42 43 44 45 46 47 48 49 50

000
ASUS41 KCLE 070912
RWRCLE
OHIO REGIONAL WEATHER ROUNDUP
NATIONAL WEATHER SERVICE WILMINGTON, OH
400 AM EST WED DEC 07 2016

NOTE: "FAIR" INDICATES FEW OR NO CLOUDS BELOW 12,000 FEET WITH NO
SIGNIFICANT WEATHER AND/OR OBSTRUCTIONS TO VISIBILITY.

OHZ001>008-015>018-024>027-034-035-043-044-071000-
   NORTHWEST OHIO

CITY           SKY/WX    TMP DP  RH WIND       PRES   REMARKS
DEFIANCE       FAIR      30  22  72 W7G18     30.01R WCI  23
FINDLAY        FAIR      30  23  75 W14       30.00R WCI  19
TOLEDO EXPRESS MOCLDY    30  26  85 W16       29.98R WCI  19
TOLEDO EXEC    FAIR      31  26  82 W13       29.99R WCI  21
LIMA           FAIR      29  25  85 W12       30.01S WCI  19
$$

OHZ009>014-019>023-028>033-038-089-071000-
   NORTHEAST OHIO

CITY           SKY/WX    TMP DP  RH WIND       PRES   REMARKS
CLE-HOPKINS    CLOUDY    35  28  75 W14       30.00R WCI  26
CLE-LAKEFRONT  CLOUDY    36  29  75 SW21      29.96R
CUY CO. ARPT   NOT AVBL
LORAIN-ELYRIA  MOCLDY    32  26  78 W15       29.98R WCI  22
ASHTABULA      CLOUDY    38  31  76 W12G20    29.93R
AKRON-CANTON   CLOUDY    35  27  72 W10       29.97R WCI  27
WOOSTER        FAIR      32  27  81 W14       29.98S WCI  22
MANSFIELD      CLOUDY    31  27  85 SW13      29.98S WCI  21
YOUNGSTOWN     CLOUDY    36  29  75 W13       29.94R
$$

OHZ042-051>053-060>062-070>072-077>081-071000-
  SOUTHWEST OHIO

CITY           SKY/WX    TMP DP  RH WIND       PRES   REMARKS
CINC-COVINGTON MOCLDY    32  28  85 NW3       30.07S
CINC-LUNKEN    NOT AVBL
HAMILTON       FAIR      25  21  85 CALM      30.10R
DAYTON         FAIR      26  23  88 W8        30.05R WCI  18
WRIGHT-PAT AFB FAIR      28  26  94 SW6       30.05S WCI  21
DAYTON GENERAL FAIR      30  24  78 W3        30.06R
WILMINGTON     FAIR      29  26  89 W7        30.05S WCI  22
$$

OHZ036-037-039>041-045>050-054>059-063>069-073>076-082>088-071000-
  CENTRAL AND SOUTHEAST OHIO

CITY           SKY/WX    TMP DP  RH WIND       PRES   REMARKS
COLUMBUS       FAIR      31  29  92 W7        30.03S WCI  24
OSU AIRPORT    FAIR      30  26  85 W8        30.03S WCI  22
BOLTON FIELD   FAIR      29  26  88 W5        30.05R WCI  24
RICKENBACK AFB   N/A     31  27  83 W9        30.04S WCI  23
NEWARK         FAIR      32  27  81 SW6       30.03R WCI  26
MARION         FAIR      30  24  78 W9        30.01S WCI  22
LANCASTER      FAIR      32  27  81 W8        30.05S WCI  25
ZANESVILLE     FAIR      34  28  79 W8        30.03R WCI  27
NEW PHILLY     FAIR      36  30  79 W6        30.01R
$$




USA.gov is the U.S. government's official web portal to all federal, state and local government web resources and services.